Change the Weather History Date:

Sunday, March 31, 2013

  Actual Average Record
Temperature  
Mean Temperature 42 °F -  
Max Temperature 52 °F 0 °F 84 °F (1998)
Min Temperature 34 °F - 26 °F (1999)
Degree Days  
Heating Degree Days 22    
Moisture  
Dew Point 39 °F    
Average Humidity 80    
Maximum Humidity 100    
Minimum Humidity 37    
Precipitation  
Precipitation 0.00 in - - ()
Sea Level Pressure  
Sea Level Pressure 29.85 in    
Wind  
Wind Speed 4 mph (South)    
Max Wind Speed 12 mph    
Max Gust Speed 17 mph    
Visibility 6 miles    
Events Fog , Rain    
Averages and records for this station are not official NWS values.
T = Trace of Precipitation, MM = Missing Value Source: NWS Daily Summary

Daily Weather History Graph

Daily Weather History Graph

Search for Another Location

Airport or City:

Trip Planner

Search our weather history database for the weather conditions in past years. The results will help you decide how hot, cold, wet, or windy it might be!

Date:

Astronomy

Mar. 31, 2013 Rise Set
Actual Time 6:52 AM EDT 7:30 PM EDT
Civil Twilight 6:25 AM EDT 7:58 PM EDT
Nautical Twilight 5:53 AM EDT 8:30 PM EDT
Astronomical Twilight 5:20 AM EDT 9:03 PM EDT
Moon No Moon Rise 9:38 AM EDT (3/31)
Length of Visible Light 13h 32m
Length of Day
12h 38m
Waning Gibbous, 78% of the Moon is Illuminated
Mar 31
Waning Gibbous
Apr 3
Last Quarter
Apr 10
New
Apr 18
First Quarter
Apr 25
Full

Hourly Weather History & Observations

Time (EDT) Temp. Windchill Dew Point Humidity Pressure Visibility Wind Dir Wind Speed Gust Speed Precip Events Conditions
12:53 AM 44.1 °F 40.1 °F 19.9 °F 38% 30.11 in 10.0 mi South 6.9 mph - N/A   Clear
1:53 AM 45.0 °F 41.8 °F 19.9 °F 37% 30.11 in 10.0 mi South 5.8 mph - N/A   Clear
2:53 AM 41.0 °F - 23.0 °F 49% 30.09 in 10.0 mi Calm Calm - N/A   Clear
3:53 AM 34.0 °F - 25.0 °F 70% 30.08 in 10.0 mi Calm Calm - N/A   Clear
4:53 AM 35.1 °F - 26.1 °F 70% 30.06 in 10.0 mi Calm Calm - N/A   Clear
5:53 AM 44.1 °F - 25.0 °F 47% 30.04 in 10.0 mi Calm Calm - N/A   Clear
6:53 AM 39.0 °F - 28.0 °F 65% 30.03 in 10.0 mi Calm Calm - N/A   Clear
7:53 AM 42.1 °F 40.2 °F 30.0 °F 62% 30.02 in 10.0 mi SSW 3.5 mph - N/A   Partly Cloudy
8:53 AM 46.9 °F - 33.1 °F 59% 30.00 in 10.0 mi Variable 5.8 mph - N/A   Mostly Cloudy
9:53 AM 48.0 °F - 35.1 °F 61% 29.98 in 10.0 mi Variable 4.6 mph - N/A   Mostly Cloudy
10:53 AM 50.0 °F - 37.0 °F 61% 29.96 in 10.0 mi South 9.2 mph - 0.00 in Rain Light Rain
11:53 AM 50.0 °F - 39.9 °F 68% 29.94 in 10.0 mi South 4.6 mph - 0.00 in Rain Light Rain
12:53 PM 48.0 °F - 39.9 °F 74% 29.91 in 10.0 mi SSE 10.4 mph 17.3 mph 0.00 in Rain Light Rain
1:53 PM 51.1 °F - 42.1 °F 71% 29.85 in 10.0 mi SE 9.2 mph - 0.00 in   Overcast
2:53 PM 51.1 °F - 42.1 °F 71% 29.82 in 9.0 mi SE 4.6 mph - 0.00 in Rain Light Rain
3:53 PM 50.0 °F - 44.1 °F 80% 29.79 in 6.0 mi SE 9.2 mph - 0.00 in Rain Light Rain
4:14 PM 48.2 °F - 44.6 °F 87% 29.76 in 4.0 mi SSE 11.5 mph - 0.00 in Rain Light Rain
4:43 PM 48.2 °F - 44.6 °F 87% 29.76 in 3.0 mi SSE 4.6 mph - 0.00 in Rain Light Rain
4:53 PM 48.9 °F - 45.0 °F 86% 29.78 in 3.0 mi SSE 6.9 mph - 0.00 in Rain Light Rain
5:07 PM 48.2 °F - 44.6 °F 87% 29.75 in 2.0 mi SSE 4.6 mph - 0.00 in Rain Light Rain
5:16 PM 48.2 °F - 46.4 °F 93% 29.74 in 1.5 mi SE 4.6 mph - 0.00 in Rain Light Rain
5:28 PM 48.2 °F - 46.4 °F 93% 29.74 in 2.0 mi SE 5.8 mph - 0.00 in   Overcast
5:36 PM 48.2 °F - 46.4 °F 93% 29.74 in 3.0 mi SSE 3.5 mph - 0.00 in   Overcast
5:53 PM 48.9 °F - 46.0 °F 90% 29.76 in 7.0 mi Calm Calm - 0.00 in   Overcast
6:53 PM 48.0 °F - 46.0 °F 93% 29.75 in 5.0 mi Calm Calm - N/A   Overcast
7:09 PM 46.4 °F 42.9 °F 44.6 °F 93% 29.73 in 2.5 mi WNW 6.9 mph - N/A   Overcast
7:18 PM 46.4 °F 42.4 °F 44.6 °F 93% 29.74 in 2.0 mi West 8.1 mph - N/A   Overcast
7:20 PM 46.4 °F 42.4 °F 44.6 °F 93% 29.74 in 2.5 mi West 8.1 mph - N/A   Overcast
7:36 PM 46.4 °F 42.9 °F 44.6 °F 93% 29.73 in 3.0 mi West 6.9 mph - N/A   Overcast
8:53 PM 46.0 °F - 44.1 °F 93% 29.76 in 3.0 mi Calm Calm - N/A   Overcast
9:05 PM 46.4 °F 45.2 °F 44.6 °F 93% 29.75 in 4.0 mi West 3.5 mph - N/A   Overcast
9:30 PM 46.4 °F 45.2 °F 44.6 °F 93% 29.75 in 5.0 mi Variable 3.5 mph - N/A   Overcast
9:53 PM 46.0 °F 43.9 °F 43.0 °F 89% 29.77 in 5.0 mi WSW 4.6 mph - N/A   Mostly Cloudy
10:53 PM 43.0 °F - 41.0 °F 93% 29.77 in 3.0 mi Calm Calm - N/A   Partly Cloudy
11:40 PM 41.0 °F - 37.4 °F 87% 29.74 in 2.0 mi Calm Calm - N/A   Clear
11:49 PM 39.2 °F - 39.2 °F 100% 29.74 in 1.0 mi Calm Calm - N/A   Clear
11:50 PM 39.2 °F - 39.2 °F 100% 29.74 in 1.0 mi Calm Calm - N/A   Mist
11:53 PM 41.0 °F - 39.0 °F 93% 29.75 in 0.8 mi Calm Calm - N/A   Mist
11:58 PM 37.4 °F - 37.4 °F 100% 29.74 in 0.2 mi Calm Calm - N/A Fog Fog